Location: Krasnoyarskiy Pitomnik
(51.1333°N, 71.6167°E)
Time: 23:32:15
(UTC+00:00)

deb Explorer IX - Pass Details

Date: 21 April 2024
Orbit: 513 x 891 km, 38.7° (Epoch: 21 May)

Event Time Altitude Azimuth Distance (km) Brightness Sun altitude
Rises 06:07:27 0° 219° (SW) 3,381 ? 48.8°
Reaches altitude 10° 06:10:40 10° 202° (SSW) 2,502 ? 49.0°
Maximum altitude 06:14:40 19° 160° (SSE) 2,007 ? 49.2°
Drops below altitude 10° 06:18:48 10° 118° (ESE) 2,581 ? 49.4°
Sets 06:22:10 0° 101° (ESE) 3,527 ? 49.6°
